GW2746 Weather Reports


Display with metric or nautical units.
time (UTC)temp
F
wind
direction
speed
MPH
gust
MPH
rain 1hr
in
rain 24hr
in
rain mn
in
humidity
%
barometer
mb
20260503215632 76 25 2.0 9.0 0.00 0.00 0.00 29 1009.9
20260503215134 76 307 4.0 9.0 0.00 0.00 0.00 30 1009.9
20260503214637 76 28 2.0 6.0 0.00 0.00 0.00 31 1010.0
20260503214134 76 348 3.0 6.0 0.00 0.00 0.00 31 1010.0
20260503213619 76 240 3.0 5.0 0.00 0.00 0.00 32 1010.1
20260503213135 75 322 2.0 8.0 0.00 0.00 0.00 32 1010.1
20260503212619 75 19 1.0 10.0 0.00 0.00 0.00 32 1010.2
20260503212121 76 49 5.0 10.0 0.00 0.00 0.00 31 1010.3
20260503211628 76 60 2.0 7.0 0.00 0.00 0.00 31 1010.4
20260503211128 76 71 3.0 7.0 0.00 0.00 0.00 31 1010.6
20260503210632 76 54 2.0 6.0 0.00 0.00 0.00 32 1010.6
20260503210134 76 43 2.0 6.0 0.00 0.00 0.00 33 1010.6
20260503205616 75 101 3.0 7.0 0.00 0.00 0.00 33 1010.7
20260503205121 74 201 2.0 7.0 0.00 0.00 0.00 33 1010.8
20260503204628 75 262 3.0 8.0 0.00 0.00 0.00 33 1010.9
20260503204126 74 255 3.0 9.0 0.00 0.00 0.00 33 1010.9
20260503203629 75 281 5.0 9.0 0.00 0.00 0.00 33 1011.0
20260503203129 75 221 2.0 8.0 0.00 0.00 0.00 33 1010.1
20260503202634 75 336 1.0 9.0 0.00 0.00 0.00 33 1010.2
20260503202136 74 9 3.0 13.0 0.00 0.00 0.00 34 1010.2
20260503201619 74 275 4.0 13.0 0.00 0.00 0.00 32 1010.4
20260503201120 74 40 2.0 9.0 0.00 0.00 0.00 36 1010.4
20260503200628 74 275 6.0 8.0 0.00 0.00 0.00 33 1010.4
20260503200129 73 91 3.0 9.0 0.00 0.00 0.00 35 1010.5
20260503195634 73 352 6.0 9.0 0.00 0.00 0.00 34 1010.5
20260503195133 73 9 3.0 7.0 0.00 0.00 0.00 34 1010.5
20260503194621 73 63 3.0 6.0 0.00 0.00 0.00 35 1010.7
20260503194119 73 217 3.0 9.0 0.00 0.00 0.00 35 1010.6
20260503193650 73 326 4.0 9.0 0.00 0.00 0.00 34 1010.7
20260503193150 73 9 4.0 8.0 0.00 0.00 0.00 34 1010.9
20260503192653 73 278 5.0 8.0 0.00 0.00 0.00 34 1010.8
20260503192134 74 304 3.0 7.0 0.00 0.00 0.00 33 1010.9
20260503191625 74 137 2.0 11.0 0.00 0.00 0.00 34 1010.7
20260503191126 73 238 4.0 9.0 0.00 0.00 0.00 33 1011.0
20260503190630 73 343 3.0 12.0 0.00 0.00 0.00 35 1010.9
20260503190136 72 252 3.0 15.0 0.00 0.00 0.00 35 1011.0
20260503185620 73 328 5.0 15.0 0.00 0.00 0.00 34 1011.1
20260503185141 72 346 5.0 12.0 0.00 0.00 0.00 34 1011.0
20260503184624 72 94 4.0 10.0 0.00 0.00 0.00 34 1011.1
20260503184121 73 301 4.0 13.0 0.00 0.00 0.00 34 1011.3
20260503183628 73 348 5.0 13.0 0.00 0.00 0.00 34 1011.2
20260503183124 73 9 3.0 9.0 0.00 0.00 0.00 35 1011.2
20260503182629 73 50 2.0 9.0 0.00 0.00 0.00 37 1011.3
20260503182134 72 358 3.0 11.0 0.00 0.00 0.00 37 1011.2
20260503181644 72 50 5.0 11.0 0.00 0.00 0.00 35 1011.3
20260503181123 72 23 3.0 10.0 0.00 0.00 0.00 36 1011.4
20260503180628 72 291 2.0 9.0 0.00 0.00 0.00 36 1011.5
20260503180127 72 87 2.0 9.0 0.00 0.00 0.00 36 1011.6
20260503175630 71 351 5.0 7.0 0.00 0.00 0.00 37 1011.7
20260503175128 71 300 3.0 8.0 0.00 0.00 0.00 36 1011.7
20260503174633 71 298 4.0 10.0 0.00 0.00 0.00 37 1011.8
20260503174131 71 304 4.0 10.0 0.00 0.00 0.00 36 1011.9
20260503173615 71 329 3.0 11.0 0.00 0.00 0.00 35 1011.9
20260503173119 71 256 4.0 11.0 0.00 0.00 0.00 35 1011.9
20260503172624 71 14 2.0 8.0 0.00 0.00 0.00 35 1011.9
20260503172142 71 344 4.0 11.0 0.00 0.00 0.00 35 1012.0
20260503171627 71 286 3.0 11.0 0.00 0.00 0.00 36 1012.0
20260503171127 71 285 2.0 9.0 0.00 0.00 0.00 38 1011.9
20260503170634 71 64 2.0 8.0 0.00 0.00 0.00 37 1012.0
20260503170134 71 19 4.0 8.0 0.00 0.00 0.00 36 1012.1
20260503160134 66 333 1.0 6.0 0.00 0.00 0.00 47 1012.2
20260503150629 62 240 3.0 6.0 0.00 0.00 0.00 51 1012.0
20260503150135 61 282 2.0 7.0 0.00 0.00 0.00 51 1011.9
20260503140128 58 234 3.0 7.0 0.00 0.00 0.00 52 1011.9
20260503131123 56 243 3.0 10.0 0.00 0.00 0.00 53 1011.4
20260503130626 56 229 4.0 8.0 0.00 0.00 0.00 52 1011.2
20260503130124 56 283 6.0 9.0 0.00 0.00 0.00 52 1011.5
20260503120125 54 243 5.0 8.0 0.00 0.00 0.00 53 1011.2
20260503110621 55 295 1.0 6.0 0.00 0.00 0.00 51 1011.4
20260503110125 55 285 2.0 8.0 0.00 0.00 0.00 50 1011.2
20260503100127 57 262 5.0 10.0 0.00 0.00 0.00 46 1011.1
20260503090130 55 179 2.0 8.0 0.00 0.00 0.00 49 1011.2
20260503081616 54 228 2.0 10.0 0.00 0.00 0.00 50 1011.5
20260503081137 54 239 4.0 10.0 0.00 0.00 0.00 49 1011.6
20260503080620 54 216 3.0 8.0 0.00 0.00 0.00 49 1011.7
20260503080117 54 194 2.0 7.0 0.00 0.00 0.00 49 1011.7
20260503072625 55 187 1.0 8.0 0.00 0.00 0.00 48 1012.0
20260503072123 55 163 2.0 8.0 0.00 0.00 0.00 47 1012.0
20260503071631 55 206 3.0 7.0 0.00 0.00 0.00 47 1012.0
20260503071127 55 215 3.0 7.0 0.00 0.00 0.00 47 1012.0
20260503070619 55 199 3.0 6.0 0.00 0.00 0.00 47 1012.0
20260503070115 56 183 4.0 7.0 0.00 0.00 0.00 46 1012.1
20260503060125 56 231 4.0 8.0 0.00 0.00 0.00 46 1013.1
20260503055128 56 243 3.0 9.0 0.00 0.00 0.00 45 1013.0
20260503054632 56 235 2.0 9.0 0.00 0.00 0.00 45 1013.1
20260503054128 56 208 2.0 8.0 0.00 0.00 0.00 45 1013.2
20260503053631 56 206 5.0 8.0 0.00 0.00 0.00 45 1013.2
20260503053129 56 239 2.0 7.0 0.00 0.00 0.00 45 1013.2
20260503052631 56 214 3.0 7.0 0.00 0.00 0.00 45 1013.2
20260503052153 56 191 3.0 8.0 0.00 0.00 0.00 45 1013.1
20260503051635 56 180 4.0 8.0 0.00 0.00 0.00 45 1013.1
20260503051135 56 222 4.0 8.0 0.00 0.00 0.00 45 1013.2
20260503050620 57 253 3.0 7.0 0.00 0.00 0.00 45 1013.2
20260503050121 57 251 3.0 9.0 0.00 0.00 0.00 44 1013.3
20260503045620 57 196 4.0 8.0 0.00 0.00 0.00 44 1013.3
20260503045135 57 202 1.0 9.0 0.00 0.00 0.00 44 1013.4
20260503044619 57 229 2.0 9.0 0.00 0.00 0.00 44 1013.4
20260503044118 57 227 2.0 8.0 0.00 0.00 0.00 43 1013.4
20260503043627 58 181 3.0 8.0 0.00 0.00 0.00 43 1013.4
20260503043130 58 226 3.0 9.0 0.00 0.00 0.00 43 1013.5
20260503042637 58 236 2.0 9.0 0.00 0.00 0.00 42 1013.6
20260503042134 58 214 2.0 9.0 0.00 0.00 0.00 42 1013.6
20260503041619 58 183 3.0 10.0 0.00 0.00 0.00 42 1013.7
20260503041119 58 189 4.0 10.0 0.00 0.00 0.00 42 1013.8
20260503040623 58 192 4.0 7.0 0.00 0.00 0.00 41 1013.8
20260503040125 59 184 3.0 10.0 0.00 0.00 0.00 41 1013.9
20260503035629 59 212 4.0 10.0 0.00 0.00 0.00 40 1014.0
20260503035146 59 192 5.0 10.0 0.00 0.00 0.00 40 1014.0
20260503034628 59 256 6.0 8.0 0.00 0.00 0.00 40 1014.1
20260503034126 59 246 2.0 11.0 0.00 0.00 0.00 40 1014.2
20260503033629 59 239 4.0 11.0 0.00 0.00 0.00 39 1014.2
20260503033147 60 218 2.0 11.0 0.00 0.00 0.00 39 1014.3
20260503032629 60 181 3.0 11.0 0.00 0.00 0.00 38 1014.3
20260503032152 60 187 2.0 9.0 0.00 0.00 0.00 38 1014.5
20260503031635 60 212 6.0 12.0 0.00 0.00 0.00 37 1014.6
20260503031117 60 214 5.0 13.0 0.00 0.00 0.00 37 1014.6
20260503030620 60 233 5.0 13.0 0.00 0.00 0.00 37 1014.6
20260503030120 60 208 3.0 10.0 0.00 0.00 0.00 37 1014.7
20260503025628 61 191 2.0 10.0 0.00 0.00 0.00 37 1014.8
20260503025130 61 170 3.0 6.0 0.00 0.00 0.00 36 1014.8
20260503024636 61 119 2.0 7.0 0.00 0.00 0.00 36 1014.8
20260503024117 61 187 2.0 6.0 0.00 0.00 0.00 37 1014.9
20260503023621 62 145 1.0 10.0 0.00 0.00 0.00 36 1014.9
20260503023118 62 148 5.0 10.0 0.00 0.00 0.00 35 1015.0
20260503022621 62 215 2.0 8.0 0.00 0.00 0.00 36 1014.9
20260503022122 61 190 3.0 6.0 0.00 0.00 0.00 36 1015.0
20260503021621 61 156 3.0 6.0 0.00 0.00 0.00 37 1015.1
20260503021120 61 202 2.0 5.0 0.00 0.00 0.00 37 1015.1
20260503020628 61 171 1.0 4.0 0.00 0.00 0.00 37 1015.2
20260503020130 62 155 0.0 4.0 0.00 0.00 0.00 37 1015.1
20260503015617 62 195 0.0 2.0 0.00 0.00 0.00 37 1015.2
20260503015118 62 219 0.0 2.0 0.00 0.00 0.00 37 1015.3
20260503014624 62 219 0.0 2.0 0.00 0.00 0.00 35 1015.4
20260503014122 63 176 0.0 2.0 0.00 0.00 0.00 35 1015.5
20260503013625 63 183 0.0 1.0 0.00 0.00 0.00 35 1015.5
20260503013123 64 183 0.0 1.0 0.00 0.00 0.00 34 1015.4
20260503012647 64 183 1.0 1.0 0.00 0.00 0.00 34 1015.4
20260503012125 64 183 1.0 3.0 0.00 0.00 0.00 33 1015.4
20260503011654 65 214 0.0 4.0 0.00 0.00 0.00 33 1015.5
20260503011129 65 231 1.0 5.0 0.00 0.00 0.00 32 1015.4
20260503010632 65 187 1.0 5.0 0.00 0.00 0.00 31 1015.5
20260503010132 66 211 1.0 8.0 0.00 0.00 0.00 31 1015.4
20260503005635 66 192 4.0 8.0 0.00 0.00 0.00 31 1015.4
20260503005154 66 225 2.0 5.0 0.00 0.00 0.00 31 1015.5
20260503004652 66 207 3.0 8.0 0.00 0.00 0.00 31 1015.4
20260503004128 66 153 3.0 8.0 0.00 0.00 0.00 30 1015.4
20260503003632 67 198 4.0 7.0 0.00 0.00 0.00 30 1015.6
20260503003150 67 242 4.0 8.0 0.00 0.00 0.00 30 1015.6
20260503002652 67 304 4.0 8.0 0.00 0.00 0.00 29 1015.6
20260503002127 67 235 1.0 8.0 0.00 0.00 0.00 29 1015.7
20260503001635 68 225 4.0 8.0 0.00 0.00 0.00 28 1015.7
20260503001135 68 200 3.0 5.0 0.00 0.00 0.00 29 1015.8
20260503000621 68 273 2.0 8.0 0.00 0.00 0.00 29 1015.8
20260503000127 68 219 3.0 10.0 0.00 0.00 0.00 29 1015.9
20260502235637 68 268 3.0 6.0 0.00 0.00 0.00 29 1016.0
20260502235117 68 277 2.0 5.0 0.00 0.00 0.00 29 1016.1
20260502234620 69 229 2.0 6.0 0.00 0.00 0.00 28 1016.2
20260502234117 68 337 2.0 11.0 0.00 0.00 0.00 29 1016.3
20260502233620 68 287 3.0 11.0 0.00 0.00 0.00 28 1015.4
20260502233122 68 264 3.0 10.0 0.00 0.00 0.00 29 1015.3
20260502232626 68 304 4.0 9.0 0.00 0.00 0.00 28 1015.5
20260502232124 68 254 4.0 9.0 0.00 0.00 0.00 28 1015.5
20260502231625 68 254 5.0 12.0 0.00 0.00 0.00 29 1015.6
20260502231144 68 251 5.0 12.0 0.00 0.00 0.00 28 1015.6
20260502230628 68 250 5.0 8.0 0.00 0.00 0.00 28 1015.6
20260502230127 69 208 6.0 8.0 0.00 0.00 0.00 27 1015.7
20260502225631 68 273 4.0 9.0 0.00 0.00 0.00 29 1015.8
20260502225128 68 289 5.0 9.0 0.00 0.00 0.00 28 1015.9
20260502224632 68 239 4.0 10.0 0.00 0.00 0.00 29 1015.9
20260502224132 68 274 2.0 12.0 0.00 0.00 0.00 29 1016.0
20260502223620 68 272 4.0 8.0 0.00 0.00 0.00 28 1016.1
20260502223121 68 173 5.0 8.0 0.00 0.00 0.00 30 1016.2
20260502222647 68 254 5.0 7.0 0.00 0.00 0.00 29 1016.2
20260502222122 68 263 3.0 8.0 0.00 0.00 0.00 30 1016.2
20260502221625 68 229 3.0 9.0 0.00 0.00 0.00 28 1016.4
20260502221123 68 276 2.0 9.0 0.00 0.00 0.00 28 1016.5
20260502220652 68 227 3.0 8.0 0.00 0.00 0.00 29 1016.6
20260502220131 68 289 4.0 10.0 0.00 0.00 0.00 30 1016.6